Powrót do katalogu

SL-8 R/B

AktywnyLEO
NORAD 4370·ROCKET BODY·🇷🇺 Russia

Wystrzelony Apr 11, 1970 z Plesetsk Cosmodrome

Loading…

Następne Przeloty (najbliższe 24 godziny)

TLE

ŚwieżeSource: Space-Track

Epoka: Sep 14, 2026, 13:56 UTC

1 04370U 70028B   26257.58093808  .00000268  00000-0  57625-4 0  9999
2 04370  74.0374 118.9178 0015510 255.5854 104.3593 14.63467753504541

Śledź SL-8 R/B w czasie rzeczywistym z AllMySat

Download on the App Store